| time (UTC) | temp F | wind direction | speed MPH | gust MPH | rain 1hr in | rain 24hr in | rain mn in | humidity % | barometer mb |
| 20260506072725 | 43 | 273 | 9.0 | 18.0 | 0.00 | 0.00 | 0.00 | 60 | 1002.6 |
| 20260506071804 | 42 | 271 | 9.0 | 21.0 | 0.00 | 0.00 | 0.00 | 61 | 1002.6 |
| 20260506070904 | 42 | 276 | 9.0 | 19.0 | 0.00 | 0.00 | 0.00 | 62 | 1002.5 |
| 20260506061825 | 40 | 269 | 7.0 | 14.0 | 0.00 | 0.00 | 0.00 | 69 | 1002.1 |
| 20260506060925 | 39 | 280 | 9.0 | 18.0 | 0.00 | 0.00 | 0.00 | 68 | 1001.9 |
| 20260506050904 | 37 | 271 | 4.0 | 12.0 | 0.00 | 0.00 | 0.00 | 73 | 1001.3 |
| 20260506044504 | 36 | 265 | 4.0 | 13.0 | 0.00 | 0.00 | 0.00 | 75 | 1001.0 |
| 20260506043604 | 36 | 268 | 4.0 | 16.0 | 0.00 | 0.00 | 0.00 | 75 | 1001.0 |
| 20260506042704 | 36 | 260 | 4.0 | 12.0 | 0.00 | 0.00 | 0.00 | 76 | 1001.0 |
| 20260506041804 | 35 | 266 | 4.0 | 10.0 | 0.00 | 0.00 | 0.00 | 77 | 1000.5 |
| 20260506040904 | 35 | 270 | 3.0 | 9.0 | 0.00 | 0.00 | 0.00 | 78 | 1000.5 |
| 20260506040005 | 34 | 269 | 3.0 | 10.0 | 0.00 | 0.00 | 0.00 | 79 | 1000.1 |
| 20260506035404 | 33 | 272 | 3.0 | 9.0 | 0.00 | 0.00 | 0.00 | 81 | 999.1 |
| 20260506034504 | 32 | 267 | 2.0 | 7.0 | 0.00 | 0.00 | 0.00 | 82 | 1001.5 |
| 20260506033604 | 31 | 262 | 2.0 | 8.0 | 0.00 | 0.00 | 0.00 | 82 | 1000.8 |
| 20260506032704 | 31 | 259 | 3.0 | 8.0 | 0.00 | 0.00 | 0.00 | 82 | 1000.5 |
| 20260506031804 | 31 | 264 | 2.0 | 7.0 | 0.00 | 0.00 | 0.00 | 82 | 1000.5 |
| 20260506030904 | 30 | 268 | 2.0 | 8.0 | 0.00 | 0.00 | 0.00 | 83 | 1000.4 |
| 20260506030005 | 30 | 259 | 2.0 | 5.0 | 0.00 | 0.00 | 0.00 | 83 | 1000.4 |
| 20260506025425 | 30 | 265 | 2.0 | 6.0 | 0.00 | 0.00 | 0.00 | 83 | 1000.3 |
| 20260506024504 | 29 | 247 | 1.0 | 6.0 | 0.00 | 0.00 | 0.00 | 83 | 1000.2 |
| 20260506023604 | 29 | 187 | 1.0 | 4.0 | 0.00 | 0.00 | 0.00 | 83 | 1000.2 |
| 20260506022704 | 29 | 188 | 1.0 | 6.0 | 0.00 | 0.00 | 0.00 | 83 | 1000.1 |
| 20260506021825 | 29 | 332 | 1.0 | 3.0 | 0.00 | 0.00 | 0.00 | 83 | 1000.0 |
| 20260506020904 | 29 | 234 | 1.0 | 3.0 | 0.00 | 0.00 | 0.00 | 83 | 1000.1 |
| 20260506020005 | 29 | 193 | 1.0 | 4.0 | 0.00 | 0.00 | 0.00 | 83 | 1000.1 |
| 20260506015404 | 29 | 159 | 0.0 | 2.0 | 0.00 | 0.00 | 0.00 | 82 | 1000.0 |
| 20260506014504 | 29 | 185 | 1.0 | 2.0 | 0.00 | 0.00 | 0.00 | 82 | 1000.0 |
| 20260506013625 | 29 | 174 | 1.0 | 2.0 | 0.00 | 0.00 | 0.00 | 82 | 999.9 |
| 20260506012725 | 29 | 177 | 1.0 | 2.0 | 0.00 | 0.00 | 0.00 | 82 | 999.8 |
| 20260506010904 | 29 | 224 | 1.0 | 3.0 | 0.00 | 0.00 | 0.00 | 81 | 999.7 |
| 20260506003604 | 30 | 260 | 1.0 | 4.0 | 0.00 | 0.00 | 0.00 | 80 | 999.5 |
| 20260506002704 | 30 | 269 | 1.0 | 5.0 | 0.00 | 0.00 | 0.00 | 79 | 999.5 |
| 20260506001804 | 30 | 266 | 1.0 | 4.0 | 0.00 | 0.00 | 0.00 | 78 | 999.4 |
| 20260506000904 | 31 | 259 | 1.0 | 5.0 | 0.00 | 0.00 | 0.00 | 78 | 999.4 |
| 20260506000032 | 31 | 261 | 1.0 | 5.0 | 0.00 | 0.01 | 0.00 | 78 | 999.4 |
| 20260505235404 | 31 | 288 | 2.0 | 5.0 | 0.00 | 0.01 | 0.00 | 78 | 999.4 |
| 20260505234504 | 31 | 277 | 1.0 | 4.0 | 0.00 | 0.01 | 0.00 | 78 | 999.3 |
| 20260505233604 | 31 | 271 | 2.0 | 8.0 | 0.00 | 0.01 | 0.00 | 78 | 999.3 |
| 20260505232704 | 31 | 260 | 1.0 | 6.0 | 0.00 | 0.01 | 0.00 | 79 | 999.3 |
| 20260505231804 | 31 | 200 | 1.0 | 3.0 | 0.00 | 0.01 | 0.00 | 78 | 999.3 |
| 20260505230904 | 31 | 212 | 1.0 | 3.0 | 0.00 | 0.01 | 0.00 | 77 | 999.3 |
| 20260505230025 | 31 | 247 | 1.0 | 4.0 | 0.00 | 0.01 | 0.00 | 77 | 999.2 |
| 20260505225404 | 31 | 278 | 1.0 | 4.0 | 0.00 | 0.02 | 0.00 | 77 | 999.2 |
| 20260505224504 | 31 | 248 | 1.0 | 4.0 | 0.00 | 0.02 | 0.00 | 77 | 999.2 |
| 20260505223604 | 32 | 263 | 2.0 | 7.0 | 0.00 | 0.02 | 0.00 | 76 | 999.3 |
| 20260505222704 | 32 | 237 | 1.0 | 5.0 | 0.00 | 0.02 | 0.00 | 75 | 999.3 |
| 20260505221804 | 32 | 261 | 1.0 | 6.0 | 0.00 | 0.02 | 0.00 | 75 | 999.2 |
| 20260505220904 | 32 | 269 | 1.0 | 6.0 | 0.00 | 0.03 | 0.00 | 75 | 999.3 |
| 20260505220025 | 32 | 263 | 2.0 | 7.0 | 0.00 | 0.03 | 0.00 | 74 | 999.3 |
| 20260505215404 | 32 | 241 | 1.0 | 7.0 | 0.00 | 0.03 | 0.00 | 74 | 999.2 |
| 20260505214504 | 32 | 265 | 2.0 | 4.0 | 0.00 | 0.03 | 0.00 | 73 | 999.2 |
| 20260505213604 | 32 | 295 | 1.0 | 4.0 | 0.00 | 0.03 | 0.00 | 73 | 999.1 |
| 20260505212704 | 32 | 259 | 1.0 | 4.0 | 0.00 | 0.03 | 0.00 | 71 | 999.0 |
| 20260505211804 | 33 | 280 | 2.0 | 6.0 | 0.00 | 0.03 | 0.00 | 70 | 999.0 |
| 20260505210904 | 34 | 277 | 2.0 | 6.0 | 0.00 | 0.03 | 0.00 | 69 | 999.0 |
| 20260505210006 | 34 | 278 | 3.0 | 8.0 | 0.00 | 0.03 | 0.00 | 69 | 998.9 |
| 20260505205404 | 34 | 278 | 4.0 | 8.0 | 0.00 | 0.03 | 0.03 | 69 | 998.8 |
| 20260505204504 | 33 | 282 | 4.0 | 8.0 | 0.00 | 0.03 | 0.03 | 70 | 998.8 |
| 20260505203604 | 32 | 294 | 3.0 | 5.0 | 0.00 | 0.03 | 0.03 | 69 | 998.8 |
| 20260505202725 | 32 | 279 | 2.0 | 6.0 | 0.00 | 0.03 | 0.03 | 68 | 998.7 |
| 20260505201804 | 33 | 271 | 2.0 | 6.0 | 0.00 | 0.03 | 0.03 | 67 | 998.7 |
| 20260505200904 | 34 | 269 | 2.0 | 6.0 | 0.00 | 0.03 | 0.03 | 66 | 998.6 |
| 20260505200004 | 35 | 274 | 2.0 | 6.0 | 0.00 | 0.03 | 0.03 | 63 | 998.5 |
| 20260505195404 | 36 | 281 | 3.0 | 6.0 | 0.00 | 0.03 | 0.03 | 62 | 998.5 |
| 20260505194504 | 36 | 278 | 3.0 | 9.0 | 0.00 | 0.03 | 0.03 | 62 | 998.5 |
| 20260505193625 | 36 | 263 | 1.0 | 6.0 | 0.00 | 0.03 | 0.03 | 62 | 998.5 |
| 20260505192704 | 37 | 273 | 2.0 | 7.0 | 0.00 | 0.03 | 0.03 | 60 | 998.5 |
| 20260505191825 | 38 | 273 | 2.0 | 7.0 | 0.00 | 0.03 | 0.03 | 59 | 998.5 |
| 20260505190904 | 38 | 275 | 2.0 | 7.0 | 0.00 | 0.03 | 0.03 | 58 | 998.4 |
| 20260505190004 | 39 | 280 | 3.0 | 7.0 | 0.00 | 0.03 | 0.03 | 57 | 998.4 |
| 20260505185404 | 40 | 280 | 2.0 | 8.0 | 0.00 | 0.03 | 0.03 | 56 | 998.3 |
| 20260505184504 | 40 | 279 | 4.0 | 8.0 | 0.00 | 0.03 | 0.03 | 55 | 998.3 |
| 20260505183604 | 40 | 273 | 2.0 | 9.0 | 0.00 | 0.03 | 0.03 | 55 | 998.2 |
| 20260505182704 | 41 | 266 | 1.0 | 6.0 | 0.00 | 0.03 | 0.03 | 52 | 998.1 |
| 20260505181804 | 42 | 277 | 4.0 | 9.0 | 0.00 | 0.03 | 0.03 | 51 | 998.1 |
| 20260505180904 | 42 | 276 | 5.0 | 13.0 | 0.00 | 0.03 | 0.03 | 50 | 998.1 |
| 20260505180004 | 43 | 279 | 7.0 | 16.0 | 0.00 | 0.03 | 0.03 | 48 | 998.0 |
| 20260505175404 | 43 | 277 | 7.0 | 13.0 | 0.00 | 0.03 | 0.03 | 49 | 997.8 |
| 20260505174504 | 44 | 280 | 7.0 | 18.0 | 0.00 | 0.03 | 0.03 | 47 | 997.8 |
| 20260505173604 | 45 | 278 | 7.0 | 14.0 | 0.00 | 0.03 | 0.03 | 47 | 997.7 |
| 20260505172704 | 45 | 276 | 8.0 | 18.0 | 0.00 | 0.03 | 0.03 | 46 | 997.7 |
| 20260505171804 | 46 | 276 | 7.0 | 15.0 | 0.00 | 0.03 | 0.03 | 46 | 997.6 |
| 20260505170904 | 46 | 279 | 8.0 | 18.0 | 0.00 | 0.03 | 0.03 | 46 | 997.6 |
| 20260505170004 | 46 | 283 | 8.0 | 16.0 | 0.00 | 0.03 | 0.03 | 46 | 997.6 |
| 20260505165404 | 46 | 282 | 8.0 | 16.0 | 0.00 | 0.03 | 0.03 | 45 | 997.5 |
| 20260505164504 | 46 | 279 | 10.0 | 20.0 | 0.00 | 0.03 | 0.03 | 45 | 997.5 |
| 20260505163604 | 46 | 290 | 11.0 | 20.0 | 0.00 | 0.03 | 0.03 | 45 | 997.5 |
| 20260505162704 | 45 | 292 | 11.0 | 20.0 | 0.00 | 0.03 | 0.03 | 45 | 997.4 |
| 20260505161804 | 45 | 288 | 10.0 | 18.0 | 0.00 | 0.03 | 0.03 | 47 | 997.4 |
| 20260505160904 | 45 | 287 | 12.0 | 24.0 | 0.00 | 0.03 | 0.03 | 47 | 997.3 |
| 20260505152704 | 47 | 280 | 10.0 | 20.0 | 0.00 | 0.03 | 0.03 | 44 | 996.9 |
| 20260505151804 | 47 | 286 | 9.0 | 19.0 | 0.00 | 0.03 | 0.03 | 45 | 996.8 |
| 20260505150904 | 46 | 288 | 12.0 | 25.0 | 0.00 | 0.03 | 0.03 | 47 | 996.7 |
| 20260505124525 | 43 | 277 | 10.0 | 20.0 | 0.00 | 0.03 | 0.03 | 58 | 995.9 |
| 20260505123604 | 43 | 277 | 11.0 | 23.0 | 0.00 | 0.03 | 0.03 | 59 | 995.7 |
| 20260505122703 | 43 | 276 | 7.0 | 17.0 | 0.00 | 0.03 | 0.03 | 60 | 995.7 |
| 20260505121803 | 42 | 286 | 9.0 | 18.0 | 0.00 | 0.03 | 0.03 | 64 | 995.7 |
| 20260505120904 | 42 | 285 | 11.0 | 19.0 | 0.00 | 0.03 | 0.03 | 65 | 995.7 |
| 20260505120004 | 41 | 291 | 11.0 | 18.0 | 0.00 | 0.03 | 0.03 | 66 | 995.7 |
| 20260505115404 | 41 | 291 | 11.0 | 21.0 | 0.00 | 0.03 | 0.03 | 66 | 995.7 |
| 20260505114525 | 41 | 280 | 10.0 | 22.0 | 0.00 | 0.03 | 0.03 | 66 | 995.6 |
| 20260505113603 | 41 | 279 | 10.0 | 25.0 | 0.00 | 0.03 | 0.03 | 65 | 995.5 |
| 20260505112704 | 41 | 275 | 10.0 | 20.0 | 0.00 | 0.03 | 0.03 | 66 | 995.3 |
| 20260505111803 | 41 | 283 | 9.0 | 17.0 | 0.00 | 0.03 | 0.03 | 68 | 995.3 |
| 20260505110903 | 41 | 291 | 10.0 | 20.0 | 0.00 | 0.03 | 0.03 | 68 | 995.2 |
| 20260505101803 | 40 | 275 | 7.0 | 17.0 | 0.00 | 0.03 | 0.03 | 71 | 994.6 |
| 20260505100904 | 40 | 281 | 13.0 | 27.0 | 0.00 | 0.03 | 0.03 | 71 | 994.5 |
| 20260505100004 | 40 | 280 | 10.0 | 22.0 | 0.00 | 0.03 | 0.03 | 71 | 994.4 |
| 20260505095403 | 40 | 278 | 9.0 | 19.0 | 0.00 | 0.03 | 0.03 | 73 | 994.4 |
| 20260505094504 | 40 | 274 | 10.0 | 26.0 | 0.00 | 0.03 | 0.03 | 72 | 994.2 |
| 20260505093603 | 40 | 271 | 8.0 | 18.0 | 0.00 | 0.03 | 0.03 | 73 | 994.0 |
| 20260505092703 | 40 | 277 | 10.0 | 18.0 | 0.00 | 0.03 | 0.03 | 72 | 994.0 |
| 20260505091804 | 40 | 270 | 8.0 | 17.0 | 0.00 | 0.03 | 0.03 | 73 | 993.8 |
| 20260505090903 | 40 | 267 | 8.0 | 18.0 | 0.00 | 0.03 | 0.03 | 73 | 993.8 |
| 20260505090004 | 40 | 278 | 11.0 | 20.0 | 0.00 | 0.03 | 0.03 | 75 | 993.5 |
| 20260505085424 | 39 | 281 | 10.0 | 21.0 | 0.00 | 0.03 | 0.03 | 76 | 993.7 |
| 20260505084525 | 40 | 275 | 11.0 | 19.0 | 0.00 | 0.03 | 0.03 | 74 | 993.6 |
| 20260505083604 | 40 | 274 | 10.0 | 19.0 | 0.00 | 0.03 | 0.03 | 73 | 993.3 |
| 20260505082703 | 40 | 276 | 9.0 | 22.0 | 0.00 | 0.03 | 0.03 | 73 | 993.3 |
| 20260505081803 | 41 | 263 | 5.0 | 12.0 | 0.00 | 0.03 | 0.03 | 74 | 993.2 |
| 20260505080903 | 41 | 268 | 6.0 | 15.0 | 0.00 | 0.03 | 0.03 | 73 | 993.1 |